Wind_Speed
16 16 16 15 15 14 13 13 11 10 10 9 8 7 6 6 6 7 5 3 5 5 10 9 3 12 7 3 7 4 1 3 5 4 4 19 14 28 30 27 11 6 38 35 33
18 17 16 16 15 15 13 12 11 10 10 8 8 7 7 7 8 11 6 4 3 5 19 17 9 11 7 7 1 2 4 5 5 2 5 17 13 20 18 20 30 33 33 30 29
18 18 17 16 16 15 14 12 11 10 10 9 8 6 6 7 7 7 7 7 3 8 18 12 25 27 3 7 11 3 7 4 10 12 8 15 19 7 20 23 37 34 34 38 32
18 18 18 17 16 15 13 12 10 10 9 9 7 6 6 5 1 5 7 8 10 13 16 19 23 13 4 6 15 4 6 11 7 8 10 13 21 6 28 37 40 40 37 37 36
19 19 18 17 15 14 13 12 10 10 9 9 7 6 5 4 9 6 8 11 14 13 10 13 19 15 5 13 13 19 16 21 15 22 14 15 18 18 29 36 36 39 38 37 32
19 19 19 17 15 13 13 11 9 8 9 8 7 6 5 5 7 7 9 12 12 11 8 14 19 11 12 9 19 27 16 15 6 5 14 16 18 23 27 30 32 29 40 38 33
19 19 18 17 15 12 11 10 8 7 8 6 6 6 8 11 5 6 10 11 10 8 9 17 16 15 19 9 19 23 13 9 13 6 7 4 13 14 32 30 25 25 22 31 34
19 18 18 16 14 11 9 8 7 5 5 5 5 5 7 12 8 7 8 8 5 8 16 14 15 16 11 6 5 10 6 5 10 8 10 3 5 14 32 32 29 27 22 19 16
18 17 16 14 11 8 6 5 4 2 3 4 4 3 8 11 14 11 11 10 8 9 12 10 11 14 5 4 4 7 6 4 7 12 5 6 3 7 31 31 29 31 29 25 20
17 15 14 11 8 5 4 3 3 3 3 5 5 3 12 18 13 17 14 11 13 11 13 13 13 3 5 5 3 5 2 16 12 3 15 9 6 11 19 30 29 32 32 28 27
17 14 11 8 5 3 4 3 2 3 10 13 10 12 3 14 12 16 16 13 14 12 6 15 2 6 15 7 12 15 16 14 19 15 12 9 14 25 26 29 28 30 34 31 28
16 13 8 5 3 4 5 4 8 7 8 19 20 23 18 13 14 15 15 14 9 7 11 7 7 14 13 11 13 16 17 22 19 22 17 16 22 25 32 18 29 28 34 36 33
15 12 7 3 1 2 6 3 5 7 5 10 18 14 7 8 9 15 18 16 10 9 11 8 4 7 18 19 16 16 9 7 23 11 25 22 4 11 10 17 26 25 35 38 37
12 8 3 4 4 2 4 6 6 6 3 6 10 9 16 8 14 19 20 15 9 12 11 9 11 11 15 14 9 5 6 8 12 9 6 7 3 4 4 2 24 33 30 33 35
12 5 0 2 1 1 6 3 6 2 3 15 13 8 18 15 9 17 20 17 11 11 2 13 11 18 13 8 7 6 6 5 7 4 6 5 4 5 6 8 8 13 20 30 31
11 5 1 3 2 4 4 5 6 1 4 8 7 8 8 17 17 22 17 16 17 9 12 11 16 4 2 6 7 5 7 9 7 6 4 2 2 5 4 4 9 8 10 15 31
10 7 1 4 1 3 5 7 2 3 2 12 10 8 9 9 9 10 8 7 6 3 7 10 9 5 3 5 10 6 4 5 5 4 2 7 6 7 2 2 11 24 21 19 32
11 11 7 8 8 3 6 3 2 9 5 5 9 10 10 11 8 8 8 7 10 9 10 6 10 9 5 7 7 7 4 4 4 4 6 4 2 5 6 1 20 41 38 31 32
14 14 10 4 3 4 6 3 6 5 6 9 11 8 9 12 2 8 10 11 10 11 6 4 12 8 8 5 8 11 5 6 7 7 5 1 3 11 12 13 29 38 32 32 35
19 16 14 8 5 6 3 5 4 10 9 12 5 10 9 9 5 7 10 3 3 6 8 6 6 3 4 2 5 4 3 6 4 5 3 3 5 6 2 6 2 13 14 10 6
17 8 8 5 4 6 3 3 6 7 20 10 12 6 7 7 8 7 6 7 7 7 6 5 0 9 5 5 7 5 5 4 2 8 5 4 4 8 7 3 12 22 41 7 13
12 3 13 3 6 6 3 8 14 16 20 8 16 2 6 3 7 7 10 6 7 6 5 6 2 6 8 10 9 6 8 5 4 3 5 5 3 16 12 12 16 10 22 17 35
14 10 8 6 3 6 1 2 4 9 10 11 5 11 8 8 7 10 4 4 4 4 3 5 5 5 9 12 17 5 9 5 3 5 4 5 5 12 21 22 14 18 13 13 11
7 4 0 6 11 11 7 6 4 6 7 11 5 8 7 8 3 4 8 6 7 5 4 4 4 2 3 9 12 7 14 7 3 5 2 9 15 12 17 6 10 13 15 15 26
8 6 12 5 9 8 10 8 12 10 16 22 10 15 10 8 10 13 10 5 5 2 2 1 5 7 5 5 4 3 6 17 4 3 7 23 18 19 7 4 5 12 14 19 22
9 9 13 16 17 3 7 8 13 11 9 9 10 13 10 7 8 8 10 8 5 8 7 9 6 9 8 7 10 7 9 10 6 10 23 20 9 11 20 17 12 11 14 18 16
23 11 8 14 12 5 6 8 8 10 6 16 11 6 9 11 16 17 16 16 10 6 8 7 6 6 7 10 12 6 1 12 7 17 19 13 12 9 9 13 13 15 14 15 14
Wind_Direction
328 327 325 325 324 325 327 328 332 328 327 329 322 314 301 284 270 257 237 331 171 120 112 99 143 139 116 336 225 47 128 252 280 54 169 93 98 119 129 136 150 143 146 150 156
325 323 322 321 320 320 322 323 325 324 319 322 316 313 301 284 274 255 202 230 218 152 139 130 132 83 88 118 223 166 299 242 262 176 149 123 131 134 135 132 113 119 137 144 153
323 321 319 318 316 315 316 318 318 318 313 313 309 307 291 286 298 259 220 209 216 184 162 134 124 82 51 218 193 208 195 231 274 237 160 121 141 180 118 123 138 145 151 153 155
322 319 316 315 314 312 312 312 313 310 305 302 302 298 281 276 41 321 205 193 155 167 187 202 181 141 179 184 212 224 228 202 233 223 213 145 159 161 134 144 147 146 157 160 166
322 317 314 312 312 309 309 307 309 304 300 293 293 286 278 252 249 289 210 184 162 170 198 218 210 191 208 200 182 226 181 206 229 216 201 128 114 104 124 141 145 152 159 166 173
320 315 311 310 310 308 305 303 305 297 291 286 279 269 252 248 233 263 209 195 190 194 230 263 261 344 318 254 188 187 150 142 141 231 135 118 128 116 127 136 140 154 167 171 175
320 314 309 307 308 305 300 299 300 293 281 270 260 252 242 204 252 276 226 211 221 204 298 307 351 346 322 330 41 339 134 147 173 148 33 108 116 127 135 141 148 158 170 179 188
322 315 309 306 306 303 297 297 297 289 269 251 231 239 255 218 226 271 222 202 181 234 268 306 327 322 346 0 48 183 269 148 140 100 21 45 92 143 145 148 158 166 180 186 176
326 318 311 306 302 293 287 285 282 260 240 204 183 258 269 199 210 236 217 214 250 247 266 280 296 285 313 76 6 225 178 216 111 113 106 57 222 244 155 158 167 174 181 180 179
331 322 311 304 296 281 261 247 229 189 194 184 182 285 239 222 221 207 219 217 235 251 267 255 258 356 310 77 235 288 334 164 140 116 53 5 317 282 207 169 174 175 174 176 177
340 332 320 305 292 256 216 184 256 234 212 207 190 220 229 203 194 200 205 215 242 279 270 282 188 196 244 228 241 254 254 226 127 149 92 326 311 295 284 182 176 171 169 173 177
341 338 331 311 282 228 208 209 357 330 288 251 241 254 280 177 181 194 193 213 203 258 268 285 259 224 246 263 264 276 292 89 138 162 97 139 267 277 266 193 176 177 171 172 177
340 339 337 348 348 232 200 304 353 348 271 254 225 232 206 174 195 206 194 212 230 222 253 246 161 28 276 275 273 263 218 124 156 186 109 148 167 290 221 122 155 222 178 174 176
343 339 342 120 96 104 258 25 340 319 297 213 204 214 212 206 247 218 188 202 227 233 233 242 191 185 249 249 275 44 35 6 154 150 146 216 208 181 248 338 162 231 184 177 178
352 350 187 175 165 207 32 346 303 287 282 151 187 212 197 194 215 218 178 208 250 263 229 241 243 226 217 263 317 273 3 346 297 79 99 15 80 313 30 7 360 330 178 183 185
5 9 120 173 146 12 58 303 293 300 234 159 147 174 162 210 252 146 171 213 248 278 286 267 272 326 291 320 285 355 318 293 271 136 55 92 46 350 53 305 301 303 332 238 191
6 7 308 198 198 117 314 292 290 231 212 154 160 176 199 214 211 154 175 210 227 225 266 273 250 238 162 305 318 293 301 316 356 62 181 151 45 226 212 284 313 300 294 283 207
328 329 294 226 213 145 306 288 231 278 279 106 153 184 194 213 208 162 166 217 237 248 275 261 276 207 199 184 235 286 255 170 325 146 138 32 324 270 34 325 290 276 271 265 222
328 318 307 179 199 155 281 272 219 221 25 135 163 187 213 215 178 151 189 207 221 214 222 341 331 148 180 179 174 271 323 256 91 32 69 188 250 307 102 157 248 247 255 257 227
337 326 309 251 140 147 230 240 347 24 44 348 177 186 190 178 193 183 198 185 110 66 43 318 337 229 164 40 304 232 273 348 3 127 82 310 284 251 22 211 145 63 65 61 179
345 342 145 161 160 228 247 303 17 18 78 36 333 358 355 152 203 217 150 51 44 25 23 343 291 292 100 188 213 281 286 269 179 132 142 173 279 349 292 87 139 129 119 262 249
343 300 176 137 205 217 255 359 16 3 106 142 223 271 4 266 83 58 61 48 19 358 358 347 256 318 259 274 202 225 221 203 126 350 93 126 340 341 351 112 102 143 163 193 195
327 272 188 219 269 315 155 142 53 11 11 16 133 160 264 356 81 114 81 93 14 37 84 340 326 345 338 1 334 10 314 357 16 101 182 116 304 293 328 341 137 151 182 208 287
336 307 318 267 303 12 10 26 74 59 55 10 358 341 335 354 47 51 144 142 131 51 10 146 254 204 175 186 231 330 342 296 60 86 102 130 169 203 257 286 355 48 69 56 53
356 6 360 334 3 2 356 344 30 28 13 23 19 20 21 11 13 14 14 150 137 67 321 300 316 353 325 25 232 35 11 354 68 21 112 157 160 203 178 148 43 36 36 42 31
21 359 336 300 327 313 20 17 36 27 360 6 24 0 359 40 13 347 359 7 33 353 350 346 334 4 329 131 254 234 132 200 347 67 107 126 134 184 176 139 108 97 68 52 43
8 340 312 295 306 24 28 19 12 51 18 17 17 353 27 358 338 317 311 309 305 341 324 334 348 9 305 346 337 69 12 22 35 62 127 129 152 140 95 81 91 94 86 76 61
Height
1522 1520 1518 1516 1514 1513 1511 1509 1509 1507 1505 1504 1503 1502 1502 1501 1501 1502 1503 1507 1511 1513 1515 1517 1520 1520 1522 1513 1530 1530 1532 1534 1517 1511 1507 1503 1509 1511 1514 1523 1529 1527 1532 1541 1548
1520 1518 1516 1514 1513 1511 1510 1508 1507 1506 1504 1503 1502 1502 1501 1500 1500 1499 1503 1505 1510 1513 1513 1510 1518 1522 1516 1527 1535 1534 1534 1520 1505 1507 1506 1505 1510 1510 1514 1519 1530 1534 1542 1546 1550
1519 1517 1515 1513 1511 1509 1508 1507 1506 1505 1504 1503 1502 1501 1501 1500 1500 1496 1499 1504 1507 1511 1513 1515 1520 1511 1505 1516 1522 1522 1520 1508 1505 1505 1505 1505 1514 1512 1514 1522 1526 1533 1540 1544 1548
1517 1515 1512 1511 1509 1507 1506 1505 1505 1504 1503 1501 1501 1501 1500 1501 1502 1497 1497 1502 1506 1508 1510 1517 1517 1509 1507 1514 1514 1518 1508 1509 1505 1505 1504 1503 1507 1509 1513 1521 1525 1532 1538 1541 1546
1515 1512 1510 1508 1507 1506 1504 1503 1503 1502 1501 1500 1500 1500 1500 1501 1497 1497 1497 1500 1504 1505 1506 1507 1510 1511 1511 1510 1511 1516 1502 1507 1503 1503 1504 1503 1506 1509 1516 1522 1526 1532 1538 1541 1544
1513 1510 1508 1506 1505 1504 1502 1501 1501 1500 1499 1499 1499 1499 1499 1500 1495 1496 1497 1498 1502 1503 1504 1502 1502 1501 1497 1497 1503 1495 1494 1501 1501 1499 1502 1504 1508 1510 1521 1524 1529 1534 1537 1540 1543
1511 1508 1505 1503 1502 1501 1500 1499 1499 1499 1498 1497 1497 1498 1498 1495 1494 1495 1496 1498 1500 1502 1501 1501 1500 1500 1495 1492 1490 1488 1494 1498 1498 1501 1504 1502 1513 1514 1519 1524 1530 1534 1536 1539 1542
1507 1505 1502 1500 1500 1499 1498 1498 1498 1497 1497 1496 1497 1497 1493 1492 1492 1494 1495 1497 1499 1500 1501 1502 1500 1497 1495 1494 1497 1500 1503 1508 1498 1499 1507 1507 1524 1514 1517 1523 1529 1534 1536 1538 1540
1505 1502 1499 1498 1497 1497 1496 1496 1496 1496 1496 1496 1498 1498 1494 1492 1493 1493 1495 1497 1498 1500 1501 1502 1499 1493 1490 1498 1505 1495 1507 1507 1508 1503 1506 1512 1526 1520 1517 1520 1524 1529 1533 1537 1540
1502 1499 1497 1495 1495 1495 1495 1495 1496 1496 1496 1497 1498 1501 1490 1487 1488 1492 1495 1497 1499 1499 1498 1499 1496 1497 1490 1503 1532 1504 1500 1493 1514 1516 1518 1513 1526 1522 1518 1515 1517 1521 1527 1533 1538
1500 1497 1495 1494 1493 1494 1494 1495 1498 1498 1496 1489 1488 1483 1481 1484 1487 1490 1494 1497 1498 1497 1499 1494 1501 1512 1491 1487 1489 1494 1510 1501 1500 1510 1512 1537 1540 1533 1524 1514 1516 1517 1522 1527 1533
1498 1496 1494 1493 1493 1493 1494 1494 1493 1496 1491 1485 1485 1485 1482 1483 1487 1489 1493 1497 1497 1501 1494 1498 1506 1494 1486 1482 1486 1488 1502 1499 1509 1502 1518 1550 1536 1528 1515 1514 1516 1520 1517 1521 1528
1497 1495 1493 1492 1492 1493 1494 1494 1493 1494 1491 1481 1481 1481 1484 1485 1485 1487 1491 1494 1494 1499 1496 1502 1495 1486 1481 1483 1490 1486 1488 1484 1498 1503 1527 1533 1541 1531 1507 1511 1522 1528 1517 1516 1523
1496 1494 1493 1493 1495 1494 1493 1494 1493 1495 1499 1479 1479 1480 1482 1484 1483 1482 1486 1492 1491 1496 1492 1490 1483 1484 1485 1488 1475 1489 1467 1469 1486 1501 1526 1498 1534 1517 1511 1515 1515 1516 1516 1514 1520
1496 1494 1494 1493 1493 1494 1496 1494 1493 1494 1523 1472 1474 1474 1477 1480 1474 1477 1483 1488 1489 1487 1485 1489 1480 1481 1482 1477 1468 1479 1465 1471 1475 1492 1512 1515 1531 1524 1514 1518 1522 1520 1509 1513 1518
1496 1495 1495 1495 1495 1495 1494 1494 1495 1505 1507 1472 1470 1472 1476 1477 1476 1477 1482 1485 1482 1483 1478 1475 1469 1467 1469 1467 1467 1464 1469 1473 1474 1493 1539 1526 1530 1534 1525 1527 1513 1511 1515 1519 1515
1498 1497 1496 1495 1494 1493 1496 1495 1506 1513 1464 1475 1476 1472 1475 1477 1477 1476 1481 1487 1494 1500 1498 1476 1470 1463 1464 1474 1468 1469 1485 1523 1523 1522 1543 1527 1534 1529 1515 1514 1502 1497 1513 1517 1519
1498 1497 1496 1494 1493 1493 1494 1495 1508 1477 1471 1458 1467 1472 1480 1472 1473 1474 1481 1491 1480 1483 1492 1502 1503 1468 1462 1471 1479 1479 1482 1519 1532 1541 1544 1528 1547 1520 1516 1511 1505 1496 1507 1519 1521
1496 1495 1492 1492 1492 1495 1498 1506 1488 1469 1457 1461 1466 1478 1477 1469 1468 1473 1479 1481 1473 1471 1493 1494 1487 1454 1457 1459 1466 1479 1493 1471 1504 1520 1547 1543 1532 1515 1512 1521 1499 1484 1503 1516 1518
1495 1492 1486 1490 1492 1494 1497 1495 1468 1461 1462 1463 1473 1467 1479 1471 1471 1473 1477 1465 1469 1465 1465 1477 1500 1461 1457 1457 1460 1465 1465 1499 1501 1546 1562 1544 1540 1537 1521 1538 1527 1520 1513 1509 1506
1495 1493 1491 1489 1491 1493 1497 1477 1466 1465 1467 1482 1483 1476 1473 1468 1466 1472 1473 1468 1465 1468 1467 1472 1484 1486 1462 1470 1479 1478 1484 1477 1485 1513 1548 1561 1546 1529 1525 1521 1520 1505 1493 1502 1502
1497 1496 1490 1489 1493 1485 1481 1472 1471 1468 1472 1484 1493 1484 1476 1464 1470 1477 1480 1475 1470 1470 1477 1474 1481 1502 1485 1460 1455 1461 1473 1474 1507 1510 1510 1526 1543 1521 1519 1525 1508 1505 1501 1495 1496
1498 1494 1489 1489 1494 1481 1473 1472 1474 1475 1474 1474 1482 1480 1471 1470 1483 1479 1473 1473 1475 1475 1480 1480 1494 1515 1496 1476 1467 1467 1466 1464 1469 1487 1510 1536 1556 1518 1509 1514 1519 1512 1513 1515 1512
1501 1496 1487 1486 1483 1481 1480 1477 1478 1477 1478 1479 1479 1477 1473 1477 1468 1475 1478 1474 1474 1475 1475 1479 1486 1498 1517 1511 1494 1488 1478 1465 1470 1507 1514 1536 1554 1532 1518 1518 1518 1514 1515 1515 1512
1506 1500 1502 1496 1488 1485 1484 1482 1484 1485 1483 1481 1481 1481 1483 1491 1484 1485 1477 1473 1473 1475 1474 1477 1495 1488 1481 1474 1475 1477 1485 1481 1471 1473 1504 1536 1532 1526 1513 1515 1519 1514 1513 1510 1507
1514 1513 1507 1500 1492 1489 1489 1490 1490 1491 1492 1491 1492 1488 1486 1497 1498 1499 1490 1487 1486 1480 1478 1477 1497 1491 1493 1479 1483 1479 1478 1485 1473 1475 1493 1507 1519 1510 1510 1513 1516 1518 1516 1513 1512
1521 1518 1515 1502 1497 1493 1497 1495 1494 1495 1494 1495 1494 1495 1495 1494 1494 1492 1490 1488 1487 1488 1490 1489 1496 1504 1512 1489 1485 1497 1488 1487 1482 1477 1491 1509 1507 1506 1510 1512 1514 1516 1517 1517 1516